FNA506 BGCO-BIRK

Flight info

Callsign FNA506
Flight time 1h 31m
Altitude 32000
Route CP DCT 692935N0223951W DCT OG DCT MYRAR
Aircraft BE20/M-SDFGRWY/LB1

Departure

Time 2026-05-09 14:59
Airport Neerlerit Inaat Airport (BGCO)

Arrival

Time 2026-05-09 16:30
Airport Reykjavík Domestic Airport (BIRK)
Time Latitude Longitude Altitude Speed Heading
2026-05-09 14:50 70.74321 -22.64678 30 ft 0 kts 251°
2026-05-09 14:57 70.74322 -22.64724 30 ft 6 kts 283°
2026-05-09 14:58 70.74348 -22.64927 35 ft 19 kts 296°
2026-05-09 14:58 70.74528 -22.65246 49 ft 28 kts 261°
2026-05-09 14:58 70.74399 -22.65157 41 ft 56 kts 159°
2026-05-09 14:58 70.73824 -22.64463 83 ft 115 kts 158°
2026-05-09 14:59 70.73042 -22.63568 672 ft 120 kts 162°
2026-05-09 14:59 70.72205 -22.63242 1224 ft 130 kts 192°
2026-05-09 14:59 70.71254 -22.63948 1704 ft 152 kts 195°
2026-05-09 14:59 70.70152 -22.64566 2210 ft 173 kts 188°
2026-05-09 15:00 70.69113 -22.64869 2622 ft 186 kts 184°
2026-05-09 15:00 70.68024 -22.65023 2934 ft 199 kts 183°
2026-05-09 15:00 70.66994 -22.65098 3005 ft 212 kts 181°
2026-05-09 15:00 70.65810 -22.65136 3020 ft 222 kts 181°
2026-05-09 15:01 70.62783 -22.65163 3476 ft 216 kts 180°
2026-05-09 15:01 70.61299 -22.65163 3944 ft 211 kts 180°
2026-05-09 15:01 70.59833 -22.65172 4408 ft 210 kts 181°
2026-05-09 15:02 70.58376 -22.65183 4869 ft 209 kts 181°
2026-05-09 15:02 70.56921 -22.65190 5332 ft 210 kts 181°
2026-05-09 15:02 70.55453 -22.65206 5800 ft 212 kts 181°
2026-05-09 15:02 70.53979 -22.65223 6268 ft 212 kts 181°
2026-05-09 15:03 70.52496 -22.65232 6735 ft 214 kts 182°
2026-05-09 15:03 70.51002 -22.65241 7174 ft 215 kts 182°
2026-05-09 15:03 70.49514 -22.65258 7609 ft 218 kts 183°
2026-05-09 15:03 70.47989 -22.65272 8056 ft 220 kts 183°
2026-05-09 15:04 70.46445 -22.65283 8507 ft 224 kts 184°
2026-05-09 15:04 70.44878 -22.65296 8973 ft 227 kts 184°
2026-05-09 15:06 70.33407 -22.65391 12125 ft 243 kts 186°
2026-05-09 15:06 70.31727 -22.65405 12572 ft 246 kts 186°
2026-05-09 15:06 70.30005 -22.65418 13033 ft 249 kts 187°
2026-05-09 15:06 70.28269 -22.65432 13502 ft 251 kts 187°
2026-05-09 15:07 70.26513 -22.65447 13970 ft 254 kts 187°
2026-05-09 15:07 70.24734 -22.65461 14412 ft 256 kts 187°
2026-05-09 15:07 70.22946 -22.65474 14833 ft 258 kts 188°
2026-05-09 15:07 70.21140 -22.65489 15261 ft 261 kts 188°
2026-05-09 15:08 70.19316 -22.65506 15697 ft 263 kts 188°
2026-05-09 15:08 70.15620 -22.65539 16582 ft 268 kts 189°
2026-05-09 15:08 70.13749 -22.65557 17038 ft 270 kts 189°
2026-05-09 15:09 70.11868 -22.65573 17492 ft 271 kts 189°
2026-05-09 15:10 69.98452 -22.65671 20554 ft 278 kts 191°
2026-05-09 15:11 69.96544 -22.65684 20963 ft 277 kts 192°
2026-05-09 15:11 69.94625 -22.65692 21407 ft 276 kts 192°
2026-05-09 15:11 69.92702 -22.65704 21871 ft 276 kts 193°
2026-05-09 15:11 69.90773 -22.65720 22336 ft 277 kts 193°
2026-05-09 15:12 69.88843 -22.65736 22800 ft 278 kts 193°
2026-05-09 15:12 69.86908 -22.65752 23274 ft 278 kts 194°
2026-05-09 15:12 69.84968 -22.65766 23755 ft 279 kts 194°
2026-05-09 15:12 69.83028 -22.65780 24181 ft 279 kts 194°
2026-05-09 15:13 69.81089 -22.65793 24567 ft 279 kts 195°
2026-05-09 15:13 69.79141 -22.65809 24924 ft 280 kts 195°
2026-05-09 15:13 69.77187 -22.65827 25289 ft 281 kts 195°
2026-05-09 15:13 69.75228 -22.65842 25657 ft 282 kts 195°
2026-05-09 15:14 69.73275 -22.65849 26026 ft 278 kts 195°
2026-05-09 15:14 69.71354 -22.65845 26400 ft 274 kts 196°
2026-05-09 15:14 69.69463 -22.65842 26780 ft 269 kts 197°
2026-05-09 15:14 69.67601 -22.65844 27166 ft 265 kts 197°
2026-05-09 15:15 69.65788 -22.65850 27552 ft 261 kts 198°
2026-05-09 15:15 69.64566 -22.65855 27817 ft 259 kts 198°
2026-05-09 15:15 69.62202 -22.65869 28355 ft 256 kts 199°
2026-05-09 15:15 69.60417 -22.65896 28768 ft 256 kts 199°
2026-05-09 15:16 69.58640 -22.65922 29190 ft 255 kts 199°
2026-05-09 15:16 69.56862 -22.65941 29610 ft 254 kts 200°
2026-05-09 15:16 69.55104 -22.65953 30040 ft 252 kts 200°
2026-05-09 15:16 69.53337 -22.65981 30240 ft 260 kts 200°
2026-05-09 15:17 69.51479 -22.66070 30261 ft 274 kts 199°
2026-05-09 15:17 69.49522 -22.66154 30264 ft 288 kts 198°
2026-05-09 15:17 69.47485 -22.66204 30264 ft 297 kts 198°
2026-05-09 15:17 69.45417 -22.66201 30258 ft 298 kts 196°
2026-05-09 15:18 69.43343 -22.66174 30256 ft 299 kts 196°
2026-05-09 15:18 69.41258 -22.66152 30256 ft 300 kts 196°
2026-05-09 15:18 69.39175 -22.66140 30247 ft 300 kts 197°
2026-05-09 15:18 69.37079 -22.66139 30256 ft 301 kts 197°
2026-05-09 15:19 69.32880 -22.66154 30262 ft 302 kts 197°
2026-05-09 15:19 69.28662 -22.66177 30263 ft 303 kts 197°
2026-05-09 15:20 69.22329 -22.66217 30263 ft 304 kts 197°
2026-05-09 15:21 69.18089 -22.66244 30263 ft 304 kts 197°
2026-05-09 15:21 69.15972 -22.66258 30154 ft 305 kts 198°
2026-05-09 15:21 69.13862 -22.66265 30220 ft 302 kts 198°
2026-05-09 15:22 69.09660 -22.66292 30255 ft 302 kts 198°
2026-05-09 15:22 69.05477 -22.66327 30262 ft 303 kts 198°
2026-05-09 15:23 69.01261 -22.66358 30259 ft 303 kts 198°
2026-05-09 15:23 68.97037 -22.66389 30263 ft 304 kts 197°
2026-05-09 15:24 68.92803 -22.66420 30263 ft 304 kts 197°
2026-05-09 15:24 68.88562 -22.66448 30263 ft 305 kts 197°
2026-05-09 15:25 68.84317 -22.66475 30261 ft 305 kts 197°
2026-05-09 15:25 68.80076 -22.66502 30263 ft 305 kts 197°
2026-05-09 15:26 68.73736 -22.66545 30264 ft 305 kts 197°
2026-05-09 15:26 68.69487 -22.66572 30264 ft 305 kts 197°
2026-05-09 15:27 68.65247 -22.66596 30252 ft 304 kts 197°
2026-05-09 15:27 68.61014 -22.66625 30264 ft 304 kts 197°
2026-05-09 15:28 68.56782 -22.66656 30264 ft 304 kts 197°
2026-05-09 15:28 68.52545 -22.66685 30261 ft 304 kts 197°
2026-05-09 15:29 68.49022 -22.66708 30261 ft 305 kts 197°
2026-05-09 15:29 68.44781 -22.66736 30259 ft 305 kts 197°
2026-05-09 15:30 68.40548 -22.66763 30260 ft 305 kts 197°
2026-05-09 15:30 68.36314 -22.66790 30258 ft 305 kts 197°
2026-05-09 15:31 68.32076 -22.66817 30247 ft 305 kts 197°
2026-05-09 15:31 68.27851 -22.66834 30224 ft 301 kts 196°
2026-05-09 15:32 68.25753 -22.66842 30246 ft 300 kts 196°
2026-05-09 15:32 68.23664 -22.66856 30250 ft 300 kts 196°
2026-05-09 15:32 68.21576 -22.66873 30253 ft 300 kts 196°
2026-05-09 15:32 68.19513 -22.66891 30254 ft 300 kts 196°
2026-05-09 15:33 68.17422 -22.66907 30252 ft 300 kts 196°
2026-05-09 15:33 68.15335 -22.66922 30254 ft 300 kts 196°
2026-05-09 15:33 68.13242 -22.66936 30255 ft 300 kts 196°
2026-05-09 15:33 68.11154 -22.66950 30255 ft 300 kts 196°
2026-05-09 15:34 68.09561 -22.66961 30259 ft 300 kts 196°
2026-05-09 15:34 68.07977 -22.66971 30257 ft 300 kts 196°
2026-05-09 15:34 68.06253 -22.66982 30256 ft 300 kts 196°
2026-05-09 15:34 68.04364 -22.66994 30256 ft 300 kts 196°
2026-05-09 15:35 68.02321 -22.67007 30252 ft 300 kts 196°
2026-05-09 15:35 68.00234 -22.67020 30254 ft 300 kts 196°
2026-05-09 15:35 67.98145 -22.67033 30255 ft 300 kts 196°
2026-05-09 15:35 67.96059 -22.67046 30240 ft 300 kts 196°
2026-05-09 15:36 67.93969 -22.67059 30251 ft 300 kts 196°
2026-05-09 15:36 67.91874 -22.67073 30252 ft 301 kts 196°
2026-05-09 15:36 67.87707 -22.67100 30253 ft 301 kts 196°
2026-05-09 15:37 67.83514 -22.67126 30252 ft 301 kts 196°
2026-05-09 15:37 67.79349 -22.67152 30247 ft 301 kts 196°
2026-05-09 15:38 67.75161 -22.67177 30247 ft 302 kts 196°
2026-05-09 15:38 67.70960 -22.67202 30247 ft 302 kts 196°
2026-05-09 15:39 67.66759 -22.67227 30242 ft 302 kts 196°
2026-05-09 15:39 67.62561 -22.67253 30242 ft 302 kts 196°
2026-05-09 15:40 67.58370 -22.67276 30231 ft 301 kts 196°
2026-05-09 15:40 67.54203 -22.67303 30237 ft 301 kts 196°
2026-05-09 15:41 67.50000 -22.67332 30241 ft 302 kts 196°
2026-05-09 15:41 67.45804 -22.67357 30190 ft 302 kts 196°
2026-05-09 15:42 67.43707 -22.67364 30209 ft 300 kts 196°
2026-05-09 15:42 67.41623 -22.67371 30225 ft 299 kts 196°
2026-05-09 15:42 67.39545 -22.67383 30228 ft 299 kts 196°
2026-05-09 15:42 67.37460 -22.67397 30230 ft 299 kts 196°
2026-05-09 15:43 67.35379 -22.67412 30231 ft 299 kts 196°
2026-05-09 15:43 67.33294 -22.67430 30230 ft 300 kts 196°
2026-05-09 15:43 67.31206 -22.67449 30231 ft 300 kts 196°
2026-05-09 15:43 67.29116 -22.67466 30230 ft 301 kts 196°
2026-05-09 15:44 67.24928 -22.67495 30211 ft 301 kts 196°
2026-05-09 15:44 67.20735 -22.67520 30225 ft 302 kts 196°
2026-05-09 15:45 67.16528 -22.67547 30230 ft 303 kts 196°
2026-05-09 15:45 67.12313 -22.67571 30229 ft 303 kts 196°
2026-05-09 15:46 67.08089 -22.67594 30223 ft 304 kts 196°
2026-05-09 15:46 67.03864 -22.67617 30223 ft 304 kts 196°
2026-05-09 15:47 66.99635 -22.67641 30224 ft 304 kts 196°
2026-05-09 15:47 66.95402 -22.67665 30219 ft 304 kts 196°
2026-05-09 15:48 66.91172 -22.67707 30188 ft 304 kts 196°
2026-05-09 15:48 66.86967 -22.67712 30218 ft 305 kts 196°
2026-05-09 15:49 66.82726 -22.67729 30219 ft 305 kts 196°
2026-05-09 15:49 66.78470 -22.67760 30211 ft 306 kts 196°
2026-05-09 15:50 66.74209 -22.67786 30212 ft 306 kts 196°
2026-05-09 15:50 66.69943 -22.67810 30210 ft 306 kts 196°
2026-05-09 15:51 66.65676 -22.67834 30212 ft 306 kts 196°
2026-05-09 15:51 66.61435 -22.67856 30147 ft 305 kts 197°
2026-05-09 15:52 66.55074 -22.67887 30195 ft 305 kts 197°
2026-05-09 15:53 66.50826 -22.67919 30202 ft 306 kts 197°
2026-05-09 15:53 66.46555 -22.67946 30207 ft 307 kts 197°
2026-05-09 15:54 66.42266 -22.67970 30199 ft 308 kts 197°
2026-05-09 15:54 66.37973 -22.67994 30198 ft 309 kts 197°
2026-05-09 15:55 66.33674 -22.68010 30199 ft 308 kts 197°
2026-05-09 15:55 66.29364 -22.68037 30203 ft 311 kts 197°
2026-05-09 15:56 66.25069 -22.68061 30192 ft 310 kts 197°
2026-05-09 15:56 66.20751 -22.68081 30195 ft 310 kts 197°
2026-05-09 15:57 66.16422 -22.68104 30192 ft 311 kts 197°
2026-05-09 15:57 66.12110 -22.68116 30190 ft 309 kts 197°
2026-05-09 15:58 66.07808 -22.68144 30160 ft 309 kts 197°
2026-05-09 15:58 66.03463 -22.67749 30160 ft 319 kts 188°
2026-05-09 15:59 65.99015 -22.66005 30162 ft 325 kts 184°
2026-05-09 15:59 65.94555 -22.64106 30174 ft 326 kts 184°
2026-05-09 16:00 65.90079 -22.62220 30164 ft 326 kts 184°
2026-05-09 16:00 65.85632 -22.60371 30169 ft 327 kts 184°
2026-05-09 16:01 65.81126 -22.58519 30174 ft 329 kts 184°
2026-05-09 16:01 65.76618 -22.56663 30178 ft 329 kts 185°
2026-05-09 16:02 65.72099 -22.54815 30180 ft 329 kts 184°
2026-05-09 16:02 65.65357 -22.52049 30191 ft 324 kts 183°
2026-05-09 16:03 65.60921 -22.50252 30172 ft 323 kts 185°
2026-05-09 16:03 65.56498 -22.48483 30180 ft 325 kts 184°
2026-05-09 16:04 65.52031 -22.46685 30186 ft 327 kts 184°
2026-05-09 16:04 65.47569 -22.44903 30173 ft 324 kts 184°
2026-05-09 16:05 65.43119 -22.43119 30180 ft 324 kts 184°
2026-05-09 16:05 65.38665 -22.41344 30183 ft 324 kts 184°
2026-05-09 16:06 65.34207 -22.39575 30181 ft 325 kts 184°
2026-05-09 16:06 65.29746 -22.37810 30181 ft 325 kts 184°
2026-05-09 16:07 65.25312 -22.36063 30185 ft 325 kts 184°
2026-05-09 16:07 65.20835 -22.34305 30167 ft 326 kts 184°
2026-05-09 16:08 65.16439 -22.32581 30172 ft 326 kts 184°
2026-05-09 16:08 65.11966 -22.30835 30178 ft 326 kts 184°
2026-05-09 16:09 65.07493 -22.29096 30180 ft 326 kts 184°
2026-05-09 16:09 65.03012 -22.27359 30179 ft 326 kts 184°
2026-05-09 16:10 64.98768 -22.25718 30178 ft 326 kts 184°
2026-05-09 16:10 64.95104 -22.24307 30174 ft 326 kts 184°
2026-05-09 16:11 64.90976 -22.22720 30169 ft 325 kts 184°
2026-05-09 16:11 64.86471 -22.20998 30175 ft 326 kts 184°
2026-05-09 16:12 64.82005 -22.19300 30190 ft 330 kts 183°
2026-05-09 16:12 64.78171 -22.17847 30175 ft 331 kts 183°
2026-05-09 16:13 64.75141 -22.16696 30104 ft 331 kts 183°
2026-05-09 16:13 64.73244 -22.15971 29868 ft 332 kts 183°
2026-05-09 16:13 64.71042 -22.14924 29499 ft 341 kts 174°
2026-05-09 16:14 64.68768 -22.13068 29110 ft 351 kts 162°
2026-05-09 16:14 64.66571 -22.10477 28726 ft 354 kts 158°
2026-05-09 16:14 64.64382 -22.07824 28348 ft 355 kts 158°
2026-05-09 16:14 64.62929 -22.06073 28104 ft 355 kts 158°
2026-05-09 16:15 64.60731 -22.03433 27714 ft 355 kts 158°
2026-05-09 16:15 64.58535 -22.00805 27351 ft 354 kts 158°
2026-05-09 16:15 64.56345 -21.98195 27000 ft 354 kts 158°
2026-05-09 16:15 64.53443 -21.94743 26534 ft 353 kts 158°
2026-05-09 16:16 64.51258 -21.92150 26181 ft 351 kts 158°
2026-05-09 16:16 64.49797 -21.90420 25962 ft 351 kts 158°
2026-05-09 16:16 64.47717 -21.87960 25629 ft 350 kts 158°
2026-05-09 16:16 64.45554 -21.85404 25285 ft 348 kts 158°
2026-05-09 16:17 64.43408 -21.82874 24957 ft 346 kts 158°
2026-05-09 16:17 64.41290 -21.80383 24630 ft 344 kts 158°
2026-05-09 16:17 64.39158 -21.77883 24309 ft 342 kts 158°
2026-05-09 16:17 64.37035 -21.75397 23990 ft 341 kts 158°
2026-05-09 16:18 64.34928 -21.72934 23629 ft 339 kts 158°
2026-05-09 16:18 64.32824 -21.70476 23239 ft 337 kts 158°
2026-05-09 16:18 64.30760 -21.68070 22823 ft 334 kts 157°
2026-05-09 16:18 64.28697 -21.65669 22446 ft 331 kts 157°
2026-05-09 16:19 64.26647 -21.63286 22088 ft 329 kts 157°
2026-05-09 16:19 64.24600 -21.60912 21737 ft 328 kts 158°
2026-05-09 16:19 64.22568 -21.58558 21357 ft 325 kts 157°
2026-05-09 16:19 64.20562 -21.56240 20927 ft 323 kts 157°
2026-05-09 16:20 64.18550 -21.53922 20424 ft 323 kts 157°
2026-05-09 16:20 64.16538 -21.51605 19873 ft 324 kts 157°
2026-05-09 16:20 64.14529 -21.49293 19310 ft 323 kts 157°
2026-05-09 16:20 64.12524 -21.47000 18768 ft 318 kts 159°
2026-05-09 16:21 64.10470 -21.45841 17980 ft 303 kts 188°
2026-05-09 16:21 64.08543 -21.47096 17105 ft 279 kts 221°
2026-05-09 16:21 64.07294 -21.50187 16254 ft 258 kts 247°
2026-05-09 16:21 64.06450 -21.53754 15457 ft 253 kts 248°
2026-05-09 16:22 64.05607 -21.57255 14705 ft 246 kts 255°
2026-05-09 16:22 64.05492 -21.60976 13977 ft 233 kts 288°
2026-05-09 16:22 64.06161 -21.64291 13172 ft 230 kts 299°
2026-05-09 16:22 64.06958 -21.67435 12363 ft 228 kts 300°
2026-05-09 16:23 64.07739 -21.70583 11457 ft 228 kts 298°
2026-05-09 16:23 64.08493 -21.73783 10559 ft 229 kts 297°
2026-05-09 16:23 64.09228 -21.77026 9418 ft 233 kts 296°
2026-05-09 16:23 64.09977 -21.80372 8147 ft 239 kts 296°
2026-05-09 16:24 64.10723 -21.83720 6922 ft 234 kts 296°
2026-05-09 16:24 64.11214 -21.87176 5718 ft 231 kts 264°
2026-05-09 16:24 64.10307 -21.90118 4806 ft 242 kts 212°
2026-05-09 16:24 64.08823 -21.91363 4652 ft 207 kts 195°
2026-05-09 16:25 64.07433 -21.91114 4414 ft 207 kts 162°
2026-05-09 16:25 64.06272 -21.89163 4233 ft 196 kts 138°
2026-05-09 16:25 64.05645 -21.86588 4300 ft 187 kts 110°
2026-05-09 16:25 64.05260 -21.83783 4215 ft 186 kts 102°
2026-05-09 16:26 64.05245 -21.80881 4034 ft 181 kts 68°
2026-05-09 16:26 64.05991 -21.78698 3714 ft 180 kts 28°
2026-05-09 16:26 64.06953 -21.77385 3432 ft 137 kts 20°
2026-05-09 16:26 64.07790 -21.77188 2897 ft 114 kts 335°
2026-05-09 16:27 64.08499 -21.78068 2276 ft 111 kts 323°
2026-05-09 16:27 64.09139 -21.78887 2212 ft 106 kts 326°
2026-05-09 16:27 64.09764 -21.79935 2079 ft 113 kts 310°
2026-05-09 16:27 64.10245 -21.81410 1970 ft 117 kts 300°
2026-05-09 16:28 64.10638 -21.83049 1819 ft 120 kts 290°
2026-05-09 16:28 64.10971 -21.84798 1666 ft 121 kts 293°
2026-05-09 16:28 64.11336 -21.86497 1404 ft 116 kts 295°
2026-05-09 16:28 64.11706 -21.88161 1111 ft 123 kts 294°
2026-05-09 16:29 64.12040 -21.89816 694 ft 104 kts 292°
2026-05-09 16:29 64.12356 -21.91268 463 ft 100 kts 290°
2026-05-09 16:29 64.12660 -21.92785 147 ft 108 kts 293°
2026-05-09 16:29 64.12956 -21.94196 43 ft 84 kts 293°
2026-05-09 16:30 64.13149 -21.95041 32 ft 18 kts 302°
2026-05-09 16:30 64.13130 -21.95008 32 ft 15 kts 115°
2026-05-09 16:30 64.13120 -21.94657 37 ft 21 kts 58°
2026-05-09 16:30 64.13159 -21.94601 37 ft 1 kts 81°
2026-05-09 16:31 64.13159 -21.94600 37 ft 0 kts 79°